CW5376 Weather Reports


Display with metric or nautical units.
time (UTC)temp
F
wind
direction
speed
MPH
gust
MPH
rain 1hr
in
rain 24hr
in
rain mn
in
humidity
%
barometer
mb
20260510230001 74 76 18.0 28.0 0.00 0.00 0.00 29 1020.5
20260510224500 75 84 19.0 30.0 0.00 0.00 0.00 29 1020.5
20260510223000 75 89 16.0 26.0 0.00 0.00 0.00 28 1020.4
20260510220001 75 88 18.0 32.0 0.00 0.00 0.00 27 1020.5
20260510214500 75 112 15.0 30.0 0.00 0.00 0.00 28 1020.6
20260510211500 77 121 17.0 27.0 0.00 0.00 0.00 27 1020.7
20260510210002 77 11 17.0 31.0 0.00 0.00 0.00 26 1020.5
20260510203000 83 160 8.0 15.0 0.00 0.00 0.00 7 1020.5
20260510201501 82 129 3.0 5.0 0.00 0.00 0.00 10 1020.5
20260510200002 81 265 8.0 13.0 0.00 0.00 0.00 10 1020.5
20260510194501 80 230 6.0 16.0 0.00 0.00 0.00 11 1020.5
20260510193000 80 269 6.0 12.0 0.00 0.00 0.00 10 1020.6
20260510191500 80 299 8.0 15.0 0.00 0.00 0.00 8 1020.7
20260510190000 80 273 6.0 15.0 0.00 0.00 0.00 11 1020.6
20260510184459 79 263 10.0 18.0 0.00 0.00 0.00 10 1020.6
20260510182959 78 117 5.0 12.0 0.00 0.00 0.00 14 1020.7
20260510181459 78 85 5.0 7.0 0.00 0.00 0.00 15 1021.0
20260510174459 78 22 5.0 16.0 0.00 0.00 0.00 16 1021.1
20260510173000 76 80 5.0 13.0 0.00 0.00 0.00 17 1021.1
20260510171500 76 79 4.0 16.0 0.00 0.00 0.00 18 1021.0
20260510170002 75 286 6.0 10.0 0.00 0.00 0.00 19 1021.0
20260510164500 75 304 5.0 11.0 0.00 0.00 0.00 19 1021.0
20260510163001 75 232 6.0 12.0 0.00 0.00 0.00 20 1020.9
20260510161500 74 325 4.0 10.0 0.00 0.00 0.00 21 1020.7
20260510154459 73 271 3.0 8.0 0.00 0.00 0.00 22 1020.5
20260510153000 73 235 4.0 9.0 0.00 0.00 0.00 21 1020.5
20260510151459 72 287 2.0 6.0 0.00 0.00 0.00 24 1020.4
20260510145959 72 114 4.0 9.0 0.00 0.00 0.00 24 1020.4
20260510144459 70 105 5.0 10.0 0.00 0.00 0.00 26 1020.1
20260510142959 70 49 6.0 11.0 0.00 0.00 0.00 27 1020.0
20260510141500 68 84 8.0 13.0 0.00 0.00 0.00 27 1019.9
20260510140003 68 57 9.0 13.0 0.00 0.00 0.00 27 1019.9
20260510134459 67 64 7.0 12.0 0.00 0.00 0.00 28 1019.9
20260510133000 65 89 7.0 13.0 0.00 0.00 0.00 28 1019.9
20260510131459 63 90 8.0 10.0 0.00 0.00 0.00 29 1019.7
20260510130001 63 76 8.0 10.0 0.00 0.00 0.00 29 1019.3
20260510124459 63 94 9.0 13.0 0.00 0.00 0.00 28 1019.2
20260510122959 64 110 6.0 11.0 0.00 0.00 0.00 27 1018.8
20260510121459 65 117 5.0 8.0 0.00 0.00 0.00 26 1018.7
20260510111458 65 54 2.0 7.0 0.00 0.00 0.00 26 1019.2
20260510105959 65 193 3.0 7.0 0.00 0.00 0.00 25 1019.2
20260510104459 64 348 6.0 10.0 0.00 0.00 0.00 25 1019.2
20260510103000 63 355 3.0 5.0 0.00 0.00 0.00 26 1018.6
20260510101458 63 207 2.0 6.0 0.00 0.00 0.00 25 1018.4
20260510100000 63 243 5.0 7.0 0.00 0.00 0.00 24 1018.1
20260510094459 63 197 4.0 8.0 0.00 0.00 0.00 24 1018.2
20260510093000 63 273 4.0 8.0 0.00 0.00 0.00 24 1018.1
20260510091459 64 55 2.0 5.0 0.00 0.00 0.00 23 1017.9
20260510085959 64 360 4.0 8.0 0.00 0.00 0.00 22 1017.5
20260510084458 64 74 4.0 9.0 0.00 0.00 0.00 22 1017.4
20260510082958 64 95 6.0 10.0 0.00 0.00 0.00 22 1017.3
20260510081459 64 44 3.0 5.0 0.00 0.00 0.00 23 1017.0
20260510080001 64 159 2.0 4.0 0.00 0.00 0.00 21 1016.9
20260510074500 65 34 4.0 10.0 0.00 0.00 0.00 21 1016.8
20260510073000 65 48 5.0 10.0 0.00 0.00 0.00 20 1016.6
20260510071459 65 76 7.0 10.0 0.00 0.00 0.00 19 1016.4
20260510070002 65 59 5.0 8.0 0.00 0.00 0.00 20 1016.4
20260510064509 63 122 6.0 9.0 0.00 0.00 0.00 20 1016.2
20260510063001 63 79 6.0 10.0 0.00 0.00 0.00 20 1016.2
20260510061501 63 62 1.0 4.0 0.00 0.00 0.00 19 1015.8
20260510060002 65 98 2.0 6.0 0.00 0.00 0.00 19 1015.7
20260510054501 68 14 0.0 2.0 0.00 0.00 0.00 16 1015.6
20260510053001 70 360 3.0 6.0 0.00 0.00 0.00 15 1015.5
20260510051501 73 20 1.0 5.0 0.00 0.00 0.00 13 1015.0
20260510050002 74 74 3.0 7.0 0.00 0.00 0.00 12 1015.0
20260510044501 75 48 6.0 14.0 0.00 0.00 0.00 11 1015.0
20260510043002 75 19 7.0 13.0 0.00 0.00 0.00 11 1015.2
20260510041501 75 41 4.0 13.0 0.00 0.00 0.00 11 1015.0
20260510040003 76 271 7.0 16.0 0.00 0.00 0.00 11 1015.0
20260510034500 76 280 3.0 14.0 0.00 0.00 0.00 12 1014.9
20260510033001 77 15 4.0 6.0 0.00 0.00 0.00 13 1014.5
20260510031501 77 56 4.0 7.0 0.00 0.00 0.00 13 1014.3
20260510024501 77 331 4.0 11.0 0.00 0.00 0.00 13 1014.3
20260510023000 77 47 4.0 9.0 0.00 0.00 0.00 12 1013.9
20260510020000 78 309 3.0 15.0 0.00 0.00 0.00 12 1013.6
20260510014500 78 302 4.0 7.0 0.00 0.00 0.00 11 1013.6
20260510013000 79 347 5.0 12.0 0.00 0.00 0.00 11 1013.2
20260510011501 79 295 7.0 13.0 0.00 0.00 0.00 10 1013.2
20260510010000 80 278 9.0 13.0 0.00 0.00 0.00 10 1013.1
20260510003000 81 273 13.0 21.0 0.00 0.00 0.00 11 1013.1
20260510000003 82 277 15.0 26.0 0.00 0.00 0.00 9 1013.1
20260509234502 82 346 8.0 17.0 0.00 0.00 0.00 9 1013.1
20260509231502 84 265 15.0 28.0 0.00 0.00 0.00 7 1013.2